STARLINK-2720, 48653

Orbit data source: Space-Track

STARLINK-2720, 48653 is a payload satellite owned by SpaceX/Seattle (US) in LEO that was launched on Wed, 26 May 2021 UTC via an FALCON 9 launch vehicle from the Air Force Eastern Test Range (AFETR). Payload-class satellites include a variety of spacecraft equipped with specific instruments for various scientific and technological missions. These include communications satellites like Starlink; space stations such as the ISS; scientific satellites like the Hubble; Earth observation satellites from companies like Planet Labs, Umbra, and HawkEye 360; GPS; miniature CubeSats for education and research; and military/defense satellites.

Loading next visibility...
Identifier
48653, 2021-044R
Orbit
LEO
Country
Flag of USUS
Related business
Manufacturer
SpaceX/Seattle
Mission
Operational Commercial Communications
Bus & Motor
STARLINK, Unknown motor
Mass
260 kg wet, ~248 kg dry
Launch date (UTC)
2021-05-26 (5 years ago)
Launch vehicle
FALCON 9
Launch site
Air Force Eastern Test Range (AFETR)
Object type
Payload
Rocket body
Debris
Shape & HBR
Box + 1 Pan, 10.1 m
Radar Cross Section
13.562 m², Large (>1 m²)

Expand to show TLE details & history
Last TLE update: 19 hours ago

TLE from 19 hours ago
0 STARLINK-2720
1 48653U 21044R   25348.82192539 -.00003294  00000-0 -20238-3 0  9996
2 48653  53.0526 142.6031 0001301  88.5943 271.5195 15.06389987250911
Epoch: 2025-12-14T19:43Z
TLE epoch observation values (Epoch: 2025-12-14T19:43:34.353Z)
Latitude
-0.00003°
Longitude
122.98061°
Altitude
548.097 km
Speed
7.589 km/s
True Right ascension
09h 30m 24s
True Declination
0° 00' 00"
Sunlit
Object was in full shadow at epoch
Visualization orbit readout
Latitude
Unknown
Longitude
Unknown
Altitude
Unknown
Speed
Unknown
Apparent Right ascension
Unknown
Apparent Declination
Unknown
Sunlit
N/A
Visualization observer readout
Local Sidereal Time
13:19:56
Azimuth
Unknown
Elevation
Unknown
Doppler factor
Unknown
Orbital elements
Apogee altitude
548.414 km
Perigee altitude
546.612 km
Semi-major axis
6,925.65 km
Eccentricity
0.00013
Inclination
53.0526°
RAAN
142.6031°
Arg. of periapsis
88.5943°
True anomaly
271.5046°
Mean anomaly
271.5195°
Eccentric anomaly
271.51205°
Mean motion
3.76576 °/min
Orbital period
95.6 mins
BSTAR
-0.00020238
Loading maneuver chart data...
Computing Atmospheric mass density...
Loading historical data...
Loading historical data...
Loading historical data...
Loading historical data...
Loading historical data...
Loading historical data...
Loading historical data...

Documentation

Showing up to 5 results
|